,,,PA_Meas_PMT16A,,PR_Meas_QMR101_102,,RH_Meas_QMH101,,SR_Meas_QMS101,,TA_Meas_QMH101,,GenWind,,GenWind,
date,time,status,PA,status,PR,status,RH,status,SR,status,TA,status,DirAvg,status,SpdAvg,
2010-03-11, 00:00:04,VALID,1004.28,VALID,0,VALID,91.9217,VALID,0,VALID,23.6036,VALID,4,VALID,0,
2010-03-11, 00:01:04,VALID,1004.28,VALID,0,VALID,91.9751,VALID,0,VALID,23.6232,VALID,4,VALID,0,
2010-03-11, 00:02:04,VALID,1004.24,VALID,0,VALID,91.8835,VALID,0,VALID,23.5823,VALID,80,VALID,0.0214844,
2010-03-11, 00:03:04,VALID,1004.24,VALID,0,VALID,92.1658,VALID,0,VALID,23.6427,VALID,80,VALID,0.381641,
2010-03-11, 00:04:04,VALID,1004.22,VALID,0,VALID,92.0971,VALID,0,VALID,23.6409,VALID,80,VALID,0,
2010-03-11, 00:05:04,VALID,1004.2,VALID,0,VALID,92.0895,VALID,0.112286,VALID,23.6409,VALID,80,VALID,0,
2010-03-11, 00:06:04,VALID,1004.15,VALID,0,VALID,92.0437,VALID,0,VALID,23.6817,VALID,80,VALID,0,
2010-03-11, 00:07:04,VALID,1004.14,VALID,0,VALID,91.998,VALID,0,VALID,23.6817,VALID,80,VALID,0,
2010-03-11, 00:08:04,VALID,1004.12,VALID,0,VALID,91.9369,VALID,0,VALID,23.6799,VALID,80,VALID,0,
2010-03-11, 00:09:04,VALID,1004.09,VALID,0,VALID,91.8377,VALID,0,VALID,23.7012,VALID,79,VALID,0.296094,
2010-03-11, 00:10:04,VALID,1004.06,VALID,0,VALID,91.7004,VALID,0,VALID,23.7012,VALID,44,VALID,0.445313,
2010-03-11, 00:11:04,VALID,1004.08,VALID,0,VALID,91.8225,VALID,0,VALID,23.7207,VALID,19,VALID,0.824219,
2010-03-11, 00:12:04,VALID,1004.07,VALID,0,VALID,91.8301,VALID,0,VALID,23.7384,VALID,19,VALID,0.712891,
2010-03-11, 00:13:04,VALID,1004.07,VALID,0,VALID,91.6241,VALID,0,VALID,23.7384,VALID,19,VALID,0.386719,
2010-03-11, 00:14:04,VALID,1004.07,VALID,0,VALID,91.6012,VALID,0,VALID,23.7402,VALID,19,VALID,0.078125,
2010-03-11, 00:15:04,VALID,1004.03,VALID,0,VALID,91.5707,VALID,0,VALID,23.7402,VALID,19,VALID,0,
2010-03-11, 00:16:04,VALID,1004.03,VALID,0,VALID,91.6317,VALID,0,VALID,23.7402,VALID,19,VALID,0,
2010-03-11, 00:17:04,VALID,1004.03,VALID,0,VALID,91.6317,VALID,0,VALID,23.7597,VALID,26,VALID,0.0652344,
2010-03-11, 00:18:04,VALID,1004,VALID,0,VALID,91.5707,VALID,0,VALID,23.7597,VALID,18,VALID,1.07344,
2010-03-11, 00:19:04,VALID,1003.98,VALID,0,VALID,91.4486,VALID,0,VALID,23.7384,VALID,15,VALID,0.717578,
2010-03-11, 00:20:04,VALID,1003.95,VALID,0,VALID,91.2808,VALID,0,VALID,23.7012,VALID,15,VALID,0.845703,
2010-03-11, 00:21:04,VALID,1003.93,VALID,0,VALID,91.2503,VALID,0,VALID,23.6622,VALID,16,VALID,0.333984,
2010-03-11, 00:22:04,VALID,1003.93,VALID,0,VALID,91.2808,VALID,0,VALID,23.6427,VALID,16,VALID,0,
2010-03-11, 00:23:04,VALID,1003.92,VALID,0,VALID,91.3113,VALID,0,VALID,23.6036,VALID,16,VALID,0,
2010-03-11, 00:24:04,VALID,1003.9,VALID,0,VALID,91.3723,VALID,0,VALID,23.5841,VALID,16,VALID,0,
2010-03-11, 00:25:04,VALID,1003.93,VALID,0,VALID,91.4257,VALID,0,VALID,23.5451,VALID,16,VALID,0.295312,
2010-03-11, 00:26:04,VALID,1003.9,VALID,0,VALID,91.5326,VALID,0,VALID,23.5646,VALID,14,VALID,0.660937,
2010-03-11, 00:27:04,VALID,1003.93,VALID,0,VALID,91.6317,VALID,0,VALID,23.5646,VALID,3,VALID,0.738672,
2010-03-11, 00:28:04,VALID,1003.92,VALID,0,VALID,91.586,VALID,0,VALID,23.5646,VALID,345,VALID,0.465625,
2010-03-11, 00:29:04,VALID,1003.92,VALID,0,VALID,91.5631,VALID,0,VALID,23.5451,VALID,345,VALID,0.271094,
2010-03-11, 00:30:04,VALID,1003.9,VALID,0,VALID,91.6012,VALID,0,VALID,23.5256,VALID,345,VALID,0.451172,
2010-03-11, 00:31:04,VALID,1003.88,VALID,0,VALID,91.5936,VALID,0,VALID,23.5061,VALID,345,VALID,0.504297,
2010-03-11, 00:32:04,VALID,1003.86,VALID,0,VALID,91.6317,VALID,0,VALID,23.4866,VALID,345,VALID,0.437891,
2010-03-11, 00:33:04,VALID,1003.84,VALID,0,VALID,91.6775,VALID,0,VALID,23.5274,VALID,345,VALID,0.151953,
2010-03-11, 00:34:04,VALID,1003.81,VALID,0,VALID,91.7309,VALID,0,VALID,23.5061,VALID,345,VALID,0,
2010-03-11, 00:35:04,VALID,1003.8,VALID,0,VALID,91.7157,VALID,0,VALID,23.4866,VALID,345,VALID,0,
2010-03-11, 00:36:04,VALID,1003.78,VALID,0,VALID,91.7004,VALID,0,VALID,23.4866,VALID,345,VALID,0,
2010-03-11, 00:37:04,VALID,1003.78,VALID,0,VALID,91.7309,VALID,0,VALID,23.4866,VALID,345,VALID,0,
2010-03-11, 00:38:04,VALID,1003.74,VALID,0,VALID,91.7767,VALID,0,VALID,23.4866,VALID,345,VALID,0,
2010-03-11, 00:39:04,VALID,1003.79,VALID,0,VALID,91.9293,VALID,0,VALID,23.5061,VALID,345,VALID,0,
2010-03-11, 00:40:04,VALID,1003.78,VALID,0,VALID,92.12,VALID,0,VALID,23.5646,VALID,330,VALID,0.346484,
2010-03-11, 00:41:04,VALID,1003.77,VALID,0,VALID,92.1429,VALID,0,VALID,23.6036,VALID,330,VALID,0.234375,
2010-03-11, 00:42:04,VALID,1003.76,VALID,0,VALID,92.1124,VALID,0,VALID,23.6232,VALID,330,VALID,0.173438,
2010-03-11, 00:43:04,VALID,1003.79,VALID,0,VALID,92.1277,VALID,0,VALID,23.6427,VALID,330,VALID,0,
2010-03-11, 00:44:04,VALID,1003.76,VALID,0,VALID,92.1429,VALID,0,VALID,23.7012,VALID,311,VALID,0.446875,
2010-03-11, 00:45:04,VALID,1003.76,VALID,0,VALID,92.1658,VALID,0,VALID,23.7402,VALID,308,VALID,0.546875,
2010-03-11, 00:46:04,VALID,1003.77,VALID,0,VALID,92.1582,VALID,0,VALID,23.7597,VALID,295,VALID,0.492969,
2010-03-11, 00:47:04,VALID,1003.77,VALID,0,VALID,92.1429,VALID,0,VALID,23.7597,VALID,295,VALID,0.547266,
2010-03-11, 00:48:04,VALID,1003.73,VALID,0,VALID,92.0971,VALID,0,VALID,23.7988,VALID,295,VALID,0.180078,
2010-03-11, 00:49:04,VALID,1003.73,VALID,0,VALID,92.0971,VALID,0,VALID,23.8183,VALID,295,VALID,0,
2010-03-11, 00:50:04,VALID,1003.72,VALID,0,VALID,92.059,VALID,0,VALID,23.8183,VALID,262,VALID,0,
2010-03-11, 00:51:04,VALID,1003.68,VALID,0,VALID,92.0514,VALID,0,VALID,23.8573,VALID,227,VALID,0.69375,
2010-03-11, 00:52:04,VALID,1003.69,VALID,0,VALID,92.0209,VALID,0,VALID,23.8573,VALID,232,VALID,0.5625,
2010-03-11, 00:53:04,VALID,1003.68,VALID,0,VALID,91.998,VALID,0,VALID,23.8963,VALID,245,VALID,0.471484,
2010-03-11, 00:54:04,VALID,1003.69,VALID,0,VALID,91.9445,VALID,0,VALID,23.9159,VALID,246,VALID,0.261328,
2010-03-11, 00:55:04,VALID,1003.69,VALID,0,VALID,91.8606,VALID,0,VALID,23.9354,VALID,294,VALID,0.51875,
2010-03-11, 00:56:04,VALID,1003.66,VALID,0,VALID,91.7538,VALID,0,VALID,23.9354,VALID,320,VALID,0.458203,
2010-03-11, 00:57:04,VALID,1003.64,VALID,0,VALID,91.441,VALID,0,VALID,23.8963,VALID,24,VALID,0.957812,
2010-03-11, 00:58:04,VALID,1003.68,VALID,0,VALID,91.3647,VALID,0,VALID,23.8378,VALID,40,VALID,1.24766,
2010-03-11, 00:59:04,VALID,1003.65,VALID,0,VALID,91.5707,VALID,0,VALID,23.7988,VALID,40,VALID,0.333984,
2010-03-11, 01:00:04,VALID,1003.62,VALID,0,VALID,91.6851,VALID,0,VALID,23.8183,VALID,40,VALID,0,
2010-03-11, 01:01:04,VALID,1003.59,VALID,0,VALID,91.7843,VALID,0,VALID,23.8183,VALID,40,VALID,0.258203,
2010-03-11, 01:02:04,VALID,1003.6,VALID,0,VALID,91.7385,VALID,0,VALID,23.8183,VALID,40,VALID,0.3125,
2010-03-11, 01:03:04,VALID,1003.58,VALID,0,VALID,91.7385,VALID,0,VALID,23.8183,VALID,39,VALID,0.0523437,
2010-03-11, 01:04:04,VALID,1003.58,VALID,0,VALID,91.6699,VALID,0,VALID,23.8378,VALID,39,VALID,0.18125,
2010-03-11, 01:05:04,VALID,1003.58,VALID,0,VALID,91.4563,VALID,0,VALID,23.7793,VALID,36,VALID,0.533203,
2010-03-11, 01:06:04,VALID,1003.57,VALID,0,VALID,91.6241,VALID,0,VALID,23.7988,VALID,36,VALID,0,
2010-03-11, 01:07:04,VALID,1003.53,VALID,0,VALID,91.6699,VALID,0,VALID,23.7793,VALID,36,VALID,0,
2010-03-11, 01:08:04,VALID,1003.53,VALID,0,VALID,91.6088,VALID,0,VALID,23.7793,VALID,36,VALID,0,
2010-03-11, 01:09:04,VALID,1003.5,VALID,0,VALID,91.5173,VALID,0,VALID,23.7597,VALID,99,VALID,0.862109,
2010-03-11, 01:10:04,VALID,1003.47,VALID,0,VALID,91.5783,VALID,0,VALID,23.7189,VALID,100,VALID,0.512891,
2010-03-11, 01:11:04,VALID,1003.48,VALID,0,VALID,91.6546,VALID,0,VALID,23.7402,VALID,100,VALID,0.145313,
2010-03-11, 01:12:04,VALID,1003.46,VALID,0,VALID,91.502,VALID,0,VALID,23.7207,VALID,101,VALID,0.294531,
2010-03-11, 01:13:04,VALID,1003.49,VALID,0,VALID,91.2426,VALID,0,VALID,23.6622,VALID,101,VALID,0,
2010-03-11, 01:14:04,VALID,1003.47,VALID,0,VALID,91.2655,VALID,0,VALID,23.6232,VALID,101,VALID,0,
2010-03-11, 01:15:04,VALID,1003.45,VALID,0,VALID,91.5097,VALID,0,VALID,23.6232,VALID,101,VALID,0,
2010-03-11, 01:16:04,VALID,1003.44,VALID,0,VALID,91.5707,VALID,0,VALID,23.6427,VALID,101,VALID,0,
2010-03-11, 01:17:04,VALID,1003.42,VALID,0,VALID,91.5402,VALID,0,VALID,23.6232,VALID,101,VALID,0,
2010-03-11, 01:18:04,VALID,1003.43,VALID,0,VALID,91.5631,VALID,0,VALID,23.6232,VALID,101,VALID,0,
2010-03-11, 01:19:04,VALID,1003.43,VALID,0,VALID,91.5478,VALID,0,VALID,23.6232,VALID,101,VALID,0,
2010-03-11, 01:20:04,VALID,1003.37,VALID,0,VALID,91.4791,VALID,0,VALID,23.6036,VALID,101,VALID,0,
2010-03-11, 01:21:04,VALID,1003.35,VALID,0,VALID,91.6851,VALID,0,VALID,23.6232,VALID,101,VALID,0,
2010-03-11, 01:22:04,VALID,1003.34,VALID,0,VALID,91.7462,VALID,0,VALID,23.6622,VALID,101,VALID,0,
2010-03-11, 01:23:04,VALID,1003.35,VALID,0,VALID,91.6394,VALID,0,VALID,23.6622,VALID,101,VALID,0,
2010-03-11, 01:24:04,VALID,1003.32,VALID,0,VALID,91.3571,VALID,0,VALID,23.6232,VALID,101,VALID,0,
2010-03-11, 01:25:04,VALID,1003.35,VALID,0,VALID,91.5249,VALID,0,VALID,23.6036,VALID,101,VALID,0,
2010-03-11, 01:26:04,VALID,1003.34,VALID,0,VALID,91.7004,VALID,0,VALID,23.6427,VALID,101,VALID,0,
2010-03-11, 01:27:04,VALID,1003.37,VALID,0,VALID,91.5097,VALID,0,VALID,23.6036,VALID,358,VALID,0.826172,
2010-03-11, 01:28:04,VALID,1003.41,VALID,0,VALID,91.5707,VALID,0,VALID,23.6036,VALID,358,VALID,0.559766,
2010-03-11, 01:29:04,VALID,1003.42,VALID,0,VALID,91.1053,VALID,0,VALID,23.5646,VALID,358,VALID,0.760156,
2010-03-11, 01:30:04,VALID,1003.42,VALID,0,VALID,91.3037,VALID,0,VALID,23.5061,VALID,358,VALID,0.325391,
2010-03-11, 01:31:04,VALID,1003.42,VALID,0,VALID,91.2426,VALID,0,VALID,23.4866,VALID,358,VALID,0,
2010-03-11, 01:32:04,VALID,1003.4,VALID,0,VALID,91.441,VALID,0,VALID,23.428,VALID,358,VALID,0,
2010-03-11, 01:33:04,VALID,1003.41,VALID,0,VALID,91.4791,VALID,0,VALID,23.4085,VALID,358,VALID,0,
2010-03-11, 01:34:04,VALID,1003.4,VALID,0,VALID,91.3342,VALID,0,VALID,23.3482,VALID,358,VALID,0,
2010-03-11, 01:35:04,VALID,1003.35,VALID,0,VALID,91.4563,VALID,0,VALID,23.35,VALID,358,VALID,0,
2010-03-11, 01:36:04,VALID,1003.37,VALID,0,VALID,91.5402,VALID,0,VALID,23.3305,VALID,358,VALID,0,
2010-03-11, 01:37:04,VALID,1003.38,VALID,0,VALID,91.7157,VALID,0,VALID,23.35,VALID,166,VALID,0.477734,
2010-03-11, 01:38:04,VALID,1003.34,VALID,0,VALID,91.8148,VALID,0,VALID,23.3695,VALID,163,VALID,0.552734,
2010-03-11, 01:39:04,VALID,1003.32,VALID,0,VALID,91.8072,VALID,0,VALID,23.389,VALID,172,VALID,1.14258,
2010-03-11, 01:40:04,VALID,1003.33,VALID,0,VALID,91.8988,VALID,0,VALID,23.428,VALID,169,VALID,0.928906,
2010-03-11, 01:41:04,VALID,1003.31,VALID,0,VALID,91.8911,VALID,0,VALID,23.4671,VALID,169,VALID,1.03047,
2010-03-11, 01:42:04,VALID,1003.31,VALID,0,VALID,91.792,VALID,0,VALID,23.5061,VALID,171,VALID,0.896484,
2010-03-11, 01:43:04,VALID,1003.26,VALID,0,VALID,91.6623,VALID,0,VALID,23.5256,VALID,162,VALID,0.887109,
2010-03-11, 01:44:04,VALID,1003.24,VALID,0,VALID,91.5249,VALID,0,VALID,23.5238,VALID,156,VALID,0.916406,
2010-03-11, 01:45:04,VALID,1003.23,VALID,0,VALID,91.4105,VALID,0,VALID,23.5646,VALID,160,VALID,0.861328,
2010-03-11, 01:46:04,VALID,1003.24,VALID,0,VALID,91.3342,VALID,0,VALID,23.6036,VALID,161,VALID,0.882422,
2010-03-11, 01:47:04,VALID,1003.25,VALID,0,VALID,91.174,VALID,0,VALID,23.6019,VALID,162,VALID,0.782422,
2010-03-11, 01:48:04,VALID,1003.28,VALID,0,VALID,91.0824,VALID,0,VALID,23.6622,VALID,156,VALID,0.710547,
2010-03-11, 01:49:04,VALID,1003.25,VALID,0,VALID,90.8306,VALID,0,VALID,23.6817,VALID,156,VALID,0.739062,
2010-03-11, 01:50:04,VALID,1003.27,VALID,0,VALID,90.5712,VALID,0,VALID,23.6817,VALID,156,VALID,0.889063,
2010-03-11, 01:51:04,VALID,1003.24,VALID,0,VALID,90.4034,VALID,0,VALID,23.7207,VALID,156,VALID,0.767969,
2010-03-11, 01:52:04,VALID,1003.23,VALID,0,VALID,90.2889,VALID,0,VALID,23.7207,VALID,156,VALID,0.482812,
2010-03-11, 01:53:04,VALID,1003.23,VALID,0,VALID,90.144,VALID,0,VALID,23.7402,VALID,156,VALID,0.421484,
2010-03-11, 01:54:04,VALID,1003.18,VALID,0,VALID,90.0143,VALID,0,VALID,23.7012,VALID,156,VALID,0,
2010-03-11, 01:55:04,VALID,1003.17,VALID,0,VALID,89.732,VALID,0,VALID,23.6622,VALID,156,VALID,0.329688,
2010-03-11, 01:56:04,VALID,1003.13,VALID,0,VALID,89.8998,VALID,0,VALID,23.6019,VALID,155,VALID,0,
2010-03-11, 01:57:04,VALID,1003.13,VALID,0,VALID,90.0982,VALID,0,VALID,23.6036,VALID,155,VALID,0,
2010-03-11, 01:58:04,VALID,1003.15,VALID,0,VALID,90.3423,VALID,0,VALID,23.6232,VALID,155,VALID,0,
2010-03-11, 01:59:04,VALID,1003.17,VALID,0,VALID,90.3881,VALID,0,VALID,23.6232,VALID,155,VALID,0,
2010-03-11, 02:00:04,VALID,1003.16,VALID,0,VALID,90.4186,VALID,0,VALID,23.6019,VALID,155,VALID,0,
2010-03-11, 02:01:04,VALID,1003.19,VALID,0,VALID,90.4873,VALID,0,VALID,23.6036,VALID,155,VALID,0,
2010-03-11, 02:02:04,VALID,1003.15,VALID,0,VALID,90.5178,VALID,0,VALID,23.6036,VALID,153,VALID,0,
2010-03-11, 02:03:04,VALID,1003.11,VALID,0,VALID,90.7467,VALID,0,VALID,23.5823,VALID,126,VALID,0,
2010-03-11, 02:04:04,VALID,1003.07,VALID,0,VALID,90.7314,VALID,0,VALID,23.5841,VALID,126,VALID,0,
2010-03-11, 02:05:04,VALID,1003.03,VALID,0,VALID,90.9451,VALID,0,VALID,23.5841,VALID,126,VALID,0,
2010-03-11, 02:06:04,VALID,1003.03,VALID,0,VALID,91.3037,VALID,0,VALID,23.6232,VALID,127,VALID,0,
2010-03-11, 02:07:04,VALID,1003.06,VALID,0,VALID,91.1587,VALID,0,VALID,23.6232,VALID,125,VALID,0,
2010-03-11, 02:08:04,VALID,1003.09,VALID,0,VALID,91.1663,VALID,0,VALID,23.6036,VALID,124,VALID,0,
2010-03-11, 02:09:04,VALID,1003.09,VALID,0,VALID,91.0443,VALID,0,VALID,23.5628,VALID,124,VALID,0,
2010-03-11, 02:10:04,VALID,1003.07,VALID,0,VALID,91.1816,VALID,0,VALID,23.5451,VALID,124,VALID,0,
2010-03-11, 02:11:04,VALID,1003.05,VALID,0,VALID,91.2503,VALID,0,VALID,23.5061,VALID,124,VALID,0,
2010-03-11, 02:12:04,VALID,1003.04,VALID,0,VALID,91.2884,VALID,0,VALID,23.5061,VALID,124,VALID,0,
2010-03-11, 02:13:04,VALID,1003.04,VALID,0,VALID,91.2426,VALID,0,VALID,23.428,VALID,117,VALID,0,
2010-03-11, 02:14:04,VALID,1003.05,VALID,0,VALID,91.4715,VALID,0,VALID,23.4067,VALID,117,VALID,0,
2010-03-11, 02:15:04,VALID,1003.08,VALID,0,VALID,91.4257,VALID,0.112286,VALID,23.4085,VALID,117,VALID,0,
2010-03-11, 02:16:04,VALID,1003.04,VALID,0,VALID,91.6317,VALID,0,VALID,23.389,VALID,117,VALID,0,
2010-03-11, 02:17:04,VALID,1003.02,VALID,0,VALID,91.6088,VALID,0,VALID,23.3677,VALID,117,VALID,0,
2010-03-11, 02:18:04,VALID,1002.98,VALID,0,VALID,91.5402,VALID,0,VALID,23.3695,VALID,122,VALID,0,
2010-03-11, 02:19:04,VALID,1002.97,VALID,0,VALID,91.441,VALID,0,VALID,23.3092,VALID,122,VALID,0,
2010-03-11, 02:20:04,VALID,1002.92,VALID,0,VALID,90.8306,VALID,0.112286,VALID,23.1921,VALID,37,VALID,0,
2010-03-11, 02:21:04,VALID,1002.92,VALID,0,VALID,90.762,VALID,0,VALID,23.0361,VALID,12,VALID,0,
2010-03-11, 02:22:04,VALID,1002.91,VALID,0,VALID,91.4639,VALID,0,VALID,23.0378,VALID,8,VALID,0,
2010-03-11, 02:23:04,VALID,1002.91,VALID,0,VALID,92.059,VALID,0,VALID,23.0556,VALID,49,VALID,0,
2010-03-11, 02:24:04,VALID,1002.9,VALID,0,VALID,91.8683,VALID,0,VALID,23.0769,VALID,40,VALID,0,
2010-03-11, 02:25:04,VALID,1002.91,VALID,0,VALID,91.998,VALID,0,VALID,23.0964,VALID,26,VALID,0,
2010-03-11, 02:26:04,VALID,1002.89,VALID,0,VALID,92.0437,VALID,0,VALID,23.0964,VALID,26,VALID,0,
2010-03-11, 02:27:04,VALID,1002.89,VALID,0,VALID,92.0132,VALID,0,VALID,23.0964,VALID,26,VALID,0,
2010-03-11, 02:28:04,VALID,1002.87,VALID,0,VALID,92.2116,VALID,0,VALID,23.1159,VALID,26,VALID,0,
2010-03-11, 02:29:04,VALID,1002.85,VALID,0,VALID,92.0895,VALID,0,VALID,23.1159,VALID,26,VALID,0,
2010-03-11, 02:30:04,VALID,1002.84,VALID,0,VALID,91.792,VALID,0,VALID,23.0573,VALID,26,VALID,0,
2010-03-11, 02:31:04,VALID,1002.83,VALID,0,VALID,92.2192,VALID,0,VALID,23.0573,VALID,26,VALID,0,
2010-03-11, 02:32:04,VALID,1002.82,VALID,0,VALID,92.3413,VALID,0,VALID,23.0769,VALID,26,VALID,0,
2010-03-11, 02:33:04,VALID,1002.8,VALID,0,VALID,92.3337,VALID,0,VALID,23.1159,VALID,26,VALID,0,
2010-03-11, 02:34:04,VALID,1002.82,VALID,0,VALID,92.0743,VALID,0,VALID,23.0378,VALID,26,VALID,0,
2010-03-11, 02:35:04,VALID,1002.82,VALID,0,VALID,92.0666,VALID,0,VALID,22.9988,VALID,26,VALID,0,
2010-03-11, 02:36:04,VALID,1002.8,VALID,0,VALID,92.3031,VALID,0,VALID,23.0183,VALID,26,VALID,0,
2010-03-11, 02:37:04,VALID,1002.79,VALID,0,VALID,92.2879,VALID,0,VALID,23.0183,VALID,26,VALID,0,
2010-03-11, 02:38:04,VALID,1002.75,VALID,0,VALID,92.2803,VALID,0,VALID,22.9971,VALID,26,VALID,0,
2010-03-11, 02:39:04,VALID,1002.75,VALID,0,VALID,92.3718,VALID,0,VALID,23.0378,VALID,26,VALID,0,
2010-03-11, 02:40:04,VALID,1002.79,VALID,0,VALID,92.2497,VALID,0,VALID,23.0183,VALID,26,VALID,0,
2010-03-11, 02:41:04,VALID,1002.8,VALID,0,VALID,92.4328,VALID,0,VALID,22.9971,VALID,26,VALID,0,
2010-03-11, 02:42:04,VALID,1002.8,VALID,0,VALID,92.5931,VALID,0,VALID,23.0573,VALID,26,VALID,0,
2010-03-11, 02:43:04,VALID,1002.81,VALID,0,VALID,92.471,VALID,0,VALID,23.0769,VALID,26,VALID,0,
2010-03-11, 02:44:04,VALID,1002.82,VALID,0,VALID,92.2345,VALID,0,VALID,22.9988,VALID,26,VALID,0,
2010-03-11, 02:45:04,VALID,1002.82,VALID,0,VALID,92.3489,VALID,0,VALID,22.9793,VALID,26,VALID,0,
2010-03-11, 02:46:04,VALID,1002.8,VALID,0,VALID,92.3031,VALID,0,VALID,22.9403,VALID,26,VALID,0,
2010-03-11, 02:47:04,VALID,1002.77,VALID,0,VALID,92.3566,VALID,0,VALID,22.9208,VALID,26,VALID,0,
2010-03-11, 02:48:04,VALID,1002.78,VALID,0,VALID,92.6312,VALID,0,VALID,22.9581,VALID,26,VALID,0,
2010-03-11, 02:49:04,VALID,1002.77,VALID,0,VALID,92.7991,VALID,0,VALID,23.0378,VALID,26,VALID,0,
2010-03-11, 02:50:04,VALID,1002.77,VALID,0,VALID,92.1506,VALID,0,VALID,23.0183,VALID,26,VALID,0,
2010-03-11, 02:51:04,VALID,1002.78,VALID,0,VALID,92.2116,VALID,0,VALID,22.9013,VALID,26,VALID,0,
2010-03-11, 02:52:04,VALID,1002.82,VALID,0,VALID,92.6541,VALID,0,VALID,22.9793,VALID,26,VALID,0,
2010-03-11, 02:53:04,VALID,1002.78,VALID,0,VALID,92.822,VALID,0,VALID,23.0183,VALID,60,VALID,0,
2010-03-11, 02:54:04,VALID,1002.79,VALID,0,VALID,93.0127,VALID,0,VALID,23.0964,VALID,136,VALID,0,
2010-03-11, 02:55:04,VALID,1002.79,VALID,0,VALID,93.0814,VALID,0,VALID,23.1939,VALID,151,VALID,0.00703125,
2010-03-11, 02:56:04,VALID,1002.77,VALID,0,VALID,92.9898,VALID,0,VALID,23.2134,VALID,174,VALID,1.26758,
2010-03-11, 02:57:04,VALID,1002.76,VALID,0,VALID,92.677,VALID,0,VALID,23.1531,VALID,169,VALID,1.12109,
2010-03-11, 02:58:04,VALID,1002.75,VALID,0,VALID,92.5778,VALID,0,VALID,23.1744,VALID,181,VALID,0.854688,
2010-03-11, 02:59:04,VALID,1002.77,VALID,0,VALID,92.5473,VALID,0,VALID,23.2329,VALID,175,VALID,0.860937,
2010-03-11, 03:00:04,VALID,1002.8,VALID,0,VALID,92.3489,VALID,0,VALID,23.2524,VALID,226,VALID,0,
2010-03-11, 03:01:04,VALID,1002.81,VALID,0,VALID,91.914,VALID,0,VALID,23.1744,VALID,226,VALID,0,
2010-03-11, 03:02:04,VALID,1002.83,VALID,0,VALID,91.8072,VALID,0,VALID,23.1159,VALID,226,VALID,0,
2010-03-11, 03:03:04,VALID,1002.84,VALID,0,VALID,91.9369,VALID,0,VALID,23.0769,VALID,265,VALID,0.582812,
2010-03-11, 03:04:04,VALID,1002.82,VALID,0,VALID,92.0056,VALID,0,VALID,23.0769,VALID,265,VALID,0.813281,
2010-03-11, 03:05:04,VALID,1002.8,VALID,0,VALID,92.1124,VALID,0,VALID,23.0964,VALID,248,VALID,1.11797,
2010-03-11, 03:06:04,VALID,1002.81,VALID,0,VALID,92.0971,VALID,0,VALID,23.1159,VALID,248,VALID,1.09609,
2010-03-11, 03:07:04,VALID,1002.82,VALID,0,VALID,92.059,VALID,0,VALID,23.1159,VALID,237,VALID,1.00937,
2010-03-11, 03:08:04,VALID,1002.86,VALID,0,VALID,92.0209,VALID,0,VALID,23.1354,VALID,243,VALID,1.10547,
2010-03-11, 03:09:04,VALID,1002.88,VALID,0,VALID,91.9445,VALID,0,VALID,23.1354,VALID,241,VALID,0.653125,
2010-03-11, 03:10:04,VALID,1002.91,VALID,0,VALID,91.8454,VALID,0,VALID,23.1354,VALID,240,VALID,0.642187,
2010-03-11, 03:11:04,VALID,1002.93,VALID,0,VALID,91.7767,VALID,0,VALID,23.1354,VALID,240,VALID,0.300391,
2010-03-11, 03:12:04,VALID,1002.94,VALID,0,VALID,91.6088,VALID,0,VALID,23.1159,VALID,286,VALID,0.567969,
2010-03-11, 03:13:04,VALID,1002.96,VALID,0,VALID,91.5554,VALID,0,VALID,23.0769,VALID,301,VALID,0.319922,
2010-03-11, 03:14:04,VALID,1002.94,VALID,0,VALID,91.586,VALID,0,VALID,23.0183,VALID,301,VALID,0.046875,
2010-03-11, 03:15:04,VALID,1002.9,VALID,0,VALID,91.6241,VALID,0,VALID,22.9776,VALID,301,VALID,0.0476562,
2010-03-11, 03:16:04,VALID,1002.92,VALID,0,VALID,91.6851,VALID,0,VALID,22.9793,VALID,301,VALID,0.141797,
2010-03-11, 03:17:04,VALID,1002.92,VALID,0,VALID,91.6775,VALID,0,VALID,22.9598,VALID,301,VALID,0.0527344,
2010-03-11, 03:18:04,VALID,1002.94,VALID,0,VALID,91.5631,VALID,0,VALID,22.8818,VALID,301,VALID,0,
2010-03-11, 03:19:04,VALID,1002.96,VALID,0,VALID,91.8377,VALID,0,VALID,22.9013,VALID,301,VALID,0,
2010-03-11, 03:20:04,VALID,1002.98,VALID,0,VALID,91.6394,VALID,0,VALID,22.9013,VALID,301,VALID,0,
2010-03-11, 03:21:04,VALID,1002.95,VALID,0,VALID,91.3952,VALID,0,VALID,22.7647,VALID,332,VALID,0.398438,
2010-03-11, 03:22:04,VALID,1002.97,VALID,0,VALID,91.586,VALID,0,VALID,22.7257,VALID,332,VALID,0.295703,
2010-03-11, 03:23:04,VALID,1002.99,VALID,0,VALID,91.792,VALID,0,VALID,22.7062,VALID,332,VALID,0.261719,
2010-03-11, 03:24:04,VALID,1002.97,VALID,0,VALID,91.9522,VALID,0,VALID,22.7062,VALID,332,VALID,0,
2010-03-11, 03:25:04,VALID,1002.97,VALID,0,VALID,91.9064,VALID,0,VALID,22.7062,VALID,332,VALID,0,
2010-03-11, 03:26:04,VALID,1002.96,VALID,0,VALID,92.059,VALID,0,VALID,22.6867,VALID,332,VALID,0,
2010-03-11, 03:27:04,VALID,1002.98,VALID,0,VALID,91.8759,VALID,0,VALID,22.6282,VALID,192,VALID,0,
2010-03-11, 03:28:04,VALID,1002.98,VALID,0,VALID,91.914,VALID,0,VALID,22.6087,VALID,192,VALID,0,
2010-03-11, 03:29:04,VALID,1003.01,VALID,0,VALID,91.9751,VALID,0,VALID,22.5696,VALID,192,VALID,0,
2010-03-11, 03:30:04,VALID,1003.05,VALID,0,VALID,92.0895,VALID,0,VALID,22.5696,VALID,192,VALID,0,
2010-03-11, 03:31:04,VALID,1003.02,VALID,0,VALID,92.2803,VALID,0,VALID,22.5892,VALID,192,VALID,0,
2010-03-11, 03:32:04,VALID,1003.05,VALID,0,VALID,92.3108,VALID,0,VALID,22.6104,VALID,192,VALID,0,
2010-03-11, 03:33:04,VALID,1003.03,VALID,0,VALID,92.3718,VALID,0,VALID,22.6069,VALID,192,VALID,0,
2010-03-11, 03:34:04,VALID,1003,VALID,0,VALID,92.3566,VALID,0,VALID,22.6282,VALID,192,VALID,0,
2010-03-11, 03:35:04,VALID,1002.97,VALID,0,VALID,92.4481,VALID,0,VALID,22.6477,VALID,164,VALID,0,
2010-03-11, 03:36:04,VALID,1002.97,VALID,0,VALID,92.5778,VALID,0,VALID,22.6672,VALID,147,VALID,0,
2010-03-11, 03:37:04,VALID,1002.94,VALID,0,VALID,92.5473,VALID,0,VALID,22.7062,VALID,152,VALID,0,
2010-03-11, 03:38:04,VALID,1002.96,VALID,0,VALID,92.6465,VALID,0,VALID,22.7647,VALID,167,VALID,0,
2010-03-11, 03:39:04,VALID,1002.97,VALID,0,VALID,92.471,VALID,0,VALID,22.7842,VALID,171,VALID,0,
2010-03-11, 03:40:04,VALID,1003.02,VALID,0,VALID,91.5783,VALID,0,VALID,22.6672,VALID,48,VALID,0,
2010-03-11, 03:41:04,VALID,1002.98,VALID,0,VALID,91.6546,VALID,0,VALID,22.5696,VALID,25,VALID,0,
2010-03-11, 03:42:04,VALID,1002.99,VALID,0,VALID,91.8683,VALID,0,VALID,22.5306,VALID,25,VALID,0,
2010-03-11, 03:43:04,VALID,1003.01,VALID,0,VALID,92.2268,VALID,0,VALID,22.5892,VALID,25,VALID,0,
2010-03-11, 03:44:04,VALID,1003.02,VALID,0,VALID,92.2574,VALID,0,VALID,22.5892,VALID,25,VALID,0,
2010-03-11, 03:45:04,VALID,1003.03,VALID,0,VALID,92.1963,VALID,0,VALID,22.5892,VALID,25,VALID,0,
2010-03-11, 03:46:04,VALID,1003.03,VALID,0,VALID,92.2192,VALID,0,VALID,22.5679,VALID,25,VALID,0,
2010-03-11, 03:47:04,VALID,1003.07,VALID,0,VALID,92.2574,VALID,0,VALID,22.5874,VALID,25,VALID,0,
2010-03-11, 03:48:04,VALID,1003.07,VALID,0,VALID,92.1811,VALID,0.112286,VALID,22.5892,VALID,25,VALID,0,
2010-03-11, 03:49:04,VALID,1003.07,VALID,0,VALID,91.9598,VALID,0,VALID,22.5111,VALID,25,VALID,0,
2010-03-11, 03:50:04,VALID,1003.12,VALID,0,VALID,92.0819,VALID,0,VALID,22.4721,VALID,25,VALID,0,
2010-03-11, 03:51:04,VALID,1003.13,VALID,0,VALID,92.3642,VALID,0,VALID,22.5111,VALID,25,VALID,0,
2010-03-11, 03:52:04,VALID,1003.14,VALID,0,VALID,92.5168,VALID,0.112286,VALID,22.5289,VALID,25,VALID,0,
2010-03-11, 03:53:04,VALID,1003.12,VALID,0,VALID,92.4557,VALID,0,VALID,22.5501,VALID,25,VALID,0,
2010-03-11, 03:54:04,VALID,1003.13,VALID,0,VALID,92.4252,VALID,0,VALID,22.5696,VALID,25,VALID,0,